Content
SEND FEEDBACK

Daily
Averages
Monthly
Summary
Fiji

NAUSORI, FIJI


Home > Oceania > Fiji
Elevation: 23 feet     Latitude: 18 01N     Longitude: 178 34E

WEATHER
 
SELECT A DAY
Number of Records: 149,487;   Date Range: 1/30/98 - 8/10/14
 
SHARE

PRINT THIS DATA

[ ← Previous Day ]
WEATHER ALMANAC - JANUARY 31, 2013
[ Next Day → ]
[ °C ]   °F
Weather ElementAverageHighLow
Temperature83.7 °F95 °F (3:00 pm)74 °F (6:00 am)
Dewpoint70.7 °F75 °F (6:00 pm)66.2 °F (12:00 pm)
Humidity65.7 %90 % (6:00 am)32 % (3:00 pm)
Barometer29.67 in29.77 in (11:00 pm)29.62 in (2:00 am)
Wind Speed4.8 mph11.5 mph (10:00 am)
Weather ElementAverage
Visibility27.2 mi
Wind DirectionS (177.1 °)

Weather ElementTotal
Precipitation---
Cooling Degree Days19.5 (Base 65)
Growing Degree Days34.5 (Base 50)
Averaged from 24 records on January 31, 2013
WEATHER CONDITIONS BREAKOUT
WIND DIRECTION BREAKOUT
WEATHER BY HOUR - JANUARY 31, 2013
[ °C ]   °F
Local TimeTemperatureDewpointHumidityBarometerVisibilityWind DirectionWind SpeedGust SpeedPrecipitationEventsConditions
12:00 AM78.8 °F73.4 °F83 %29.65 in24.9 miCalmScattered Clouds
1:00 AM78.8 °F73.4 °F83 %29.65 in24.9 miCalmScattered Clouds
2:00 AM78.8 °F73.4 °F83 %29.62 in24.9 miCalmScattered Clouds
3:00 AM77.0 °F72.0 °F81 %29.64 in12.0 miCalmPartly Cloudy
3:00 AM77.0 °F73.4 °F89 %29.62 in24.9 miCalmPartly Cloudy
4:00 AM77.0 °F71.6 °F83 %29.62 in24.9 miWNW (300°)9.2 mphPartly Cloudy
5:00 AM77.0 °F71.6 °F83 %29.65 in24.9 miWNW (300°)6.9 mphPartly Cloudy
6:00 AM74.0 °F72.0 °F90 %29.67 in31.0 miCalmPartly Cloudy
7:00 AM77.0 °F73.4 °F89 %29.68 in31.1 miCalmPartly Cloudy
9:00 AM85.0 °F72.0 °F57 %29.70 in31.0 miWest (280°)8.1 mphPartly Cloudy
9:00 AM84.2 °F71.6 °F66 %29.68 in31.1 miWest (280°)8.1 mphPartly Cloudy
10:00 AM87.8 °F69.8 °F55 %29.68 in31.1 miNW (310°)11.5 mphPartly Cloudy
11:00 AM89.6 °F69.8 °F52 %29.68 in31.1 miWNW (300°)11.5 mphPartly Cloudy
12:00 PM92.0 °F67.0 °F33 %29.67 in31.0 miWNW (290°)11.5 mphPartly Cloudy
12:00 PM93.2 °F66.2 °F41 %29.65 in31.1 miWNW (290°)11.5 mphPartly Cloudy
1:00 PM93.2 °F66.2 °F41 %29.62 in31.1 miWNW (290°)6.9 mphPartly Cloudy
2:00 PM93.2 °F66.2 °F41 %29.62 in31.1 miWNW (290°)11.5 mphScattered Clouds
3:00 PM95.0 °F68.0 °F41 %29.62 in31.1 miNW (320°)6.9 mphScattered Clouds
3:00 PM94.0 °F67.0 °F32 %29.63 in31.0 miNW (320°)6.9 mphPartly Cloudy
6:00 PM87.0 °F75.0 °F61 %29.67 in31.0 miSSE (150°)5.8 mphPartly Cloudy
9:00 PM81.0 °F70.0 °F61 %29.75 in12.0 miCalmPartly Cloudy
9:00 PM80.6 °F69.8 °F70 %29.74 in24.9 miCalmScattered Clouds
10:00 PM78.8 °F71.6 °F78 %29.74 in24.9 miCalmMostly Cloudy
11:00 PM78.8 °F73.4 °F83 %29.77 in24.9 miCalmMostly Cloudy
Hourly data recorded from NFNA, located miles away from Nausori, Fiji







STORIES FROM OUR PARTNERS